FW0896 Weather Reports


Display with metric or nautical units.
time (UTC)temp
F
wind
direction
speed
MPH
gust
MPH
rain 1hr
in
rain 24hr
in
rain mn
in
humidity
%
barometer
mb
20260509120057 50 328 3.0 5.0 0.00 0.00 0.00 59 1005.4
20260509114556 50 329 4.0 7.0 0.00 0.00 0.00 57 1005.1
20260509113118 51 323 7.0 9.0 0.00 0.00 0.00 56 1004.8
20260509111600 51 333 8.0 11.0 0.00 0.00 0.00 55 1004.5
20260509110049 50 311 4.0 5.0 0.00 0.00 0.00 57 1004.1
20260509104557 51 293 4.0 6.0 0.00 0.00 0.00 54 1003.6
20260509103056 51 320 7.0 16.0 0.00 0.00 0.00 54 1003.9
20260509101547 47 219 5.0 8.0 0.00 0.00 0.00 57 1002.6
20260509100105 47 231 5.0 7.0 0.00 0.00 0.00 57 1002.6
20260509094551 47 224 5.0 7.0 0.00 0.00 0.00 57 1002.7
20260509093045 46 224 5.0 7.0 0.00 0.00 0.00 58 1002.8
20260509091551 46 231 6.0 7.0 0.00 0.00 0.00 59 1002.9
20260509090042 46 226 6.0 8.0 0.00 0.00 0.00 58 1003.0
20260509084540 46 226 6.0 7.0 0.00 0.00 0.00 57 1003.0
20260509083043 47 230 5.0 7.0 0.00 0.00 0.00 56 1003.0
20260509081535 48 211 7.0 9.0 0.00 0.00 0.00 54 1002.9
20260509080044 48 237 5.0 7.0 0.00 0.00 0.00 55 1002.7
20260509074530 49 233 6.0 9.0 0.00 0.00 0.00 52 1003.1
20260509073026 49 233 6.0 8.0 0.00 0.00 0.00 52 1003.3
20260509071523 50 233 4.0 5.0 0.00 0.00 0.00 51 1003.4
20260509070023 50 231 4.0 6.0 0.00 0.00 0.00 51 1003.6
20260509064528 50 233 4.0 6.0 0.00 0.00 0.00 50 1003.5
20260509063017 51 237 3.0 6.0 0.00 0.00 0.00 47 1003.8
20260509061532 54 322 2.0 3.0 0.00 0.00 0.00 45 1004.0
20260509060012 54 322 2.0 3.0 0.00 0.00 0.00 44 1004.2
20260509054511 54 322 2.0 3.0 0.00 0.00 0.00 43 1004.1
20260509053021 55 323 2.0 4.0 0.00 0.00 0.00 44 1004.1
20260509051505 56 325 2.0 3.0 0.00 0.00 0.00 43 1004.2
20260509050002 57 326 3.0 5.0 0.00 0.00 0.00 40 1004.2
20260509044501 58 331 4.0 5.0 0.00 0.00 0.00 40 1004.3
20260509043104 59 331 3.0 7.0 0.00 0.00 0.00 39 1004.2
20260509041559 59 333 5.0 7.0 0.00 0.00 0.00 38 1004.2
20260509040100 60 336 6.0 8.0 0.00 0.00 0.00 37 1004.4
20260509034604 60 331 4.0 6.0 0.00 0.00 0.00 37 1004.3
20260509033058 61 330 5.0 9.0 0.00 0.00 0.00 35 1004.2
20260509031557 61 330 5.0 8.0 0.00 0.00 0.00 35 1004.1
20260509030056 62 330 4.0 7.0 0.00 0.00 0.00 35 1003.9
20260509024556 62 338 6.0 9.0 0.00 0.00 0.00 35 1003.8
20260509023055 63 335 5.0 8.0 0.00 0.00 0.00 35 1003.5
20260509021554 64 326 5.0 8.0 0.00 0.00 0.00 35 1003.3
20260509020054 65 340 6.0 10.0 0.00 0.00 0.00 35 1003.0
20260509014554 65 330 5.0 8.0 0.00 0.00 0.00 35 1002.9
20260509013053 67 335 6.0 10.0 0.00 0.00 0.00 34 1002.7
20260509011552 68 328 9.0 12.0 0.00 0.00 0.00 32 1002.5
20260509010051 69 336 8.0 13.0 0.00 0.00 0.00 32 1002.5
20260509004551 70 337 10.0 17.0 0.00 0.00 0.00 31 1002.4
20260509003050 71 326 10.0 16.0 0.00 0.00 0.00 31 1002.3
20260509001549 71 328 12.0 16.0 0.00 0.00 0.00 30 1002.3
20260509000049 71 337 9.0 16.0 0.00 0.00 0.00 30 1002.2
20260508234553 72 290 7.0 17.0 0.00 0.00 0.00 28 1002.1
20260508233049 72 300 8.0 11.0 0.00 0.00 0.00 27 1002.1
20260508231613 72 308 6.0 10.0 0.00 0.00 0.00 26 1002.2
20260508230056 72 283 8.0 11.0 0.00 0.00 0.00 26 1002.4
20260508224542 72 291 8.0 14.0 0.00 0.00 0.00 26 1002.4
20260508223045 72 316 7.0 15.0 0.00 0.00 0.00 26 1002.6
20260508221541 73 316 4.0 7.0 0.00 0.00 0.00 26 1002.6
20260508220043 71 309 3.0 10.0 0.00 0.00 0.00 26 1002.8
20260508214550 72 278 6.0 10.0 0.00 0.00 0.00 26 1003.0
20260508213046 73 312 8.0 12.0 0.00 0.00 0.00 26 1003.3
20260508211540 71 320 8.0 14.0 0.00 0.00 0.00 26 1003.5
20260508210033 71 294 8.0 13.0 0.00 0.00 0.00 25 1003.6
20260508204533 71 319 8.0 11.0 0.00 0.00 0.00 25 1003.7
20260508203029 71 330 8.0 19.0 0.00 0.00 0.00 25 1004.0
20260508201527 71 329 6.0 12.0 0.00 0.00 0.00 24 1004.2
20260508200030 72 287 11.0 16.0 0.00 0.00 0.00 23 1004.5
20260508194525 72 281 4.0 12.0 0.00 0.00 0.00 23 1004.7
20260508193028 72 280 9.0 13.0 0.00 0.00 0.00 23 1005.0
20260508191534 70 290 7.0 12.0 0.00 0.00 0.00 23 1005.2
20260508190027 71 274 6.0 10.0 0.00 0.00 0.00 24 1005.5
20260508184522 71 285 6.0 10.0 0.00 0.00 0.00 24 1005.6
20260508183014 70 307 6.0 9.0 0.00 0.00 0.00 24 1005.8
20260508181511 69 285 9.0 14.0 0.00 0.00 0.00 25 1006.0
20260508180009 70 285 6.0 13.0 0.00 0.00 0.00 24 1006.2
20260508174506 68 328 7.0 12.0 0.00 0.00 0.00 25 1006.3
20260508173004 68 297 9.0 13.0 0.00 0.00 0.00 26 1006.8
20260508171502 68 283 8.0 12.0 0.00 0.00 0.00 26 1007.2
20260508164608 66 244 6.0 11.0 0.00 0.00 0.00 26 1007.7
20260508163056 67 224 4.0 9.0 0.00 0.00 0.00 27 1007.8
20260508161558 67 267 6.0 13.0 0.00 0.00 0.00 26 1008.0
20260508160052 65 300 6.0 10.0 0.00 0.00 0.00 28 1008.1
20260508154550 65 271 5.0 11.0 0.00 0.00 0.00 30 1008.1
20260508153047 64 236 8.0 15.0 0.00 0.00 0.00 30 1008.4
20260508151543 63 219 5.0 10.0 0.00 0.00 0.00 31 1008.7
20260508150041 62 240 6.0 10.0 0.00 0.00 0.00 33 1008.9
20260508144538 61 257 6.0 9.0 0.00 0.00 0.00 34 1009.0
20260508143034 59 231 8.0 15.0 0.00 0.00 0.00 35 1009.2
20260508141533 57 220 9.0 20.0 0.00 0.00 0.00 37 1009.3
20260508140028 57 225 12.0 18.0 0.00 0.00 0.00 38 1009.3
20260508134524 55 231 8.0 16.0 0.00 0.00 0.00 39 1009.6
20260508133021 54 208 10.0 14.0 0.00 0.00 0.00 39 1009.7
20260508131520 54 234 8.0 15.0 0.00 0.00 0.00 38 1009.8
20260508130020 52 229 3.0 13.0 0.00 0.00 0.00 41 1009.9
20260508124514 50 222 3.0 6.0 0.00 0.00 0.00 42 1009.8
20260508123013 48 212 2.0 7.0 0.00 0.00 0.00 49 1009.9
20260508121513 46 195 4.0 8.0 0.00 0.00 0.00 50 1010.0